User: anonymous   Login
Location: Wawayanda State Park
(41.1833°N, 74.4333°W)
Time: 05:11:09
(UTC-05:00)
Language:

RESURS DK-1 - Orbit

View from above orbital plane
View from above orbital plane
View from above satellite
View from above satellite

Ground track
Ground track

The orbit data is extracted from the following two-line orbital elements,

1 29228U 06021A   14353.05784966  .00001839  00000-0  15083-3 0  5305
2 29228 069.9392 254.7673 0007829 283.9106 076.1183 15.01092256471315
Epoch (UTC): 19 December 2014 01:23:18
Eccentricity: 0.0007829
inclination: 69.9392°
perigee height: 558 km
apogee height: 569 km
right ascension of ascending node: 254.7673°
argument of perigee: 283.9106°
revolutions per day: 15.01092256
mean anomaly at epoch: 76.1183°
orbit number at epoch: 47131

The dashed part of the orbit path shows where the satellite is in the earth's shadow,  

DLR